| time (UTC) | temp F | wind direction | speed knots | gust knots | rain 1hr in | rain 24hr in | rain mn in | humidity % | barometer mb |
| 20260503203019 | 70 | 350 | 2.6 | 11.3 | 0.00 | 0.00 | 0.00 | 28 | 1006.0 |
| 20260503201521 | 70 | 297 | 8.7 | 13.0 | 0.00 | 0.00 | 0.00 | 28 | 1006.2 |
| 20260503200018 | 70 | 298 | 6.1 | 14.8 | 0.00 | 0.00 | 0.00 | 29 | 1006.3 |
| 20260503194515 | 70 | 250 | 5.2 | 14.8 | 0.00 | 0.00 | 0.00 | 27 | 1006.6 |
| 20260503193014 | 69 | 332 | 6.1 | 16.5 | 0.00 | 0.00 | 0.00 | 27 | 1006.6 |
| 20260503191513 | 69 | 313 | 8.7 | 15.6 | 0.00 | 0.00 | 0.00 | 27 | 1006.7 |
| 20260503190015 | 69 | 314 | 5.2 | 16.5 | 0.00 | 0.00 | 0.00 | 30 | 1006.6 |
| 20260503184513 | 68 | 313 | 7.0 | 12.2 | 0.00 | 0.00 | 0.00 | 29 | 1006.7 |
| 20260503183009 | 68 | 296 | 6.1 | 14.8 | 0.00 | 0.00 | 0.00 | 30 | 1006.9 |
| 20260503181507 | 68 | 271 | 4.3 | 17.4 | 0.00 | 0.00 | 0.00 | 35 | 1006.9 |
| 20260503180007 | 68 | 293 | 4.3 | 12.2 | 0.00 | 0.00 | 0.00 | 35 | 1007.1 |
| 20260503174504 | 67 | 314 | 7.8 | 14.8 | 0.00 | 0.00 | 0.00 | 35 | 1007.1 |
| 20260503173003 | 67 | 343 | 5.2 | 13.9 | 0.00 | 0.00 | 0.00 | 34 | 1007.2 |
| 20260503171600 | 67 | 282 | 7.0 | 18.2 | 0.00 | 0.00 | 0.00 | 39 | 1007.2 |
| 20260503081512 | 59 | 192 | 3.5 | 11.3 | 0.00 | 0.00 | 0.00 | 42 | 1006.1 |
| 20260503071505 | 60 | 225 | 9.6 | 16.5 | 0.00 | 0.00 | 0.00 | 45 | 1006.7 |
| 20260503054551 | 58 | 205 | 5.2 | 8.7 | 0.00 | 0.00 | 0.00 | 46 | 1008.5 |
| 20260503053050 | 58 | 174 | 5.2 | 10.4 | 0.00 | 0.00 | 0.00 | 46 | 1008.6 |
| 20260503051547 | 58 | 188 | 5.2 | 8.7 | 0.00 | 0.00 | 0.00 | 45 | 1008.9 |
| 20260503050044 | 58 | 176 | 3.5 | 9.6 | 0.00 | 0.00 | 0.00 | 44 | 1008.7 |
| 20260503044544 | 59 | 176 | 4.3 | 7.8 | 0.00 | 0.00 | 0.00 | 43 | 1008.8 |
| 20260503043042 | 60 | 165 | 4.3 | 8.7 | 0.00 | 0.00 | 0.00 | 42 | 1009.0 |
| 20260503041543 | 60 | 175 | 5.2 | 11.3 | 0.00 | 0.00 | 0.00 | 42 | 1009.2 |
| 20260503040038 | 60 | 171 | 4.3 | 7.8 | 0.00 | 0.00 | 0.00 | 41 | 1009.5 |
| 20260503034537 | 61 | 184 | 3.5 | 6.1 | 0.00 | 0.00 | 0.00 | 41 | 1009.7 |
| 20260503033034 | 61 | 171 | 3.5 | 7.8 | 0.00 | 0.00 | 0.00 | 39 | 1010.1 |
| 20260503031536 | 62 | 180 | 3.5 | 6.1 | 0.00 | 0.00 | 0.00 | 39 | 1010.2 |
| 20260503030033 | 62 | 166 | 3.5 | 7.0 | 0.00 | 0.00 | 0.00 | 38 | 1010.6 |
| 20260503024528 | 62 | 156 | 3.5 | 10.4 | 0.00 | 0.00 | 0.00 | 38 | 1010.9 |
| 20260503023030 | 62 | 177 | 2.6 | 5.2 | 0.00 | 0.00 | 0.00 | 38 | 1011.2 |
| 20260503021525 | 62 | 209 | 1.7 | 6.1 | 0.00 | 0.00 | 0.00 | 38 | 1011.4 |
| 20260503020025 | 63 | 209 | 1.7 | 5.2 | 0.00 | 0.00 | 0.00 | 38 | 1011.5 |
| 20260503014525 | 63 | 216 | 5.2 | 9.6 | 0.00 | 0.00 | 0.00 | 36 | 1011.6 |
| 20260503013034 | 63 | 259 | 4.3 | 10.4 | 0.00 | 0.00 | 0.00 | 35 | 1011.6 |
| 20260503011524 | 64 | 271 | 2.6 | 13.0 | 0.00 | 0.00 | 0.00 | 33 | 1011.5 |
| 20260503010022 | 64 | 249 | 4.3 | 16.5 | 0.00 | 0.00 | 0.00 | 34 | 1011.7 |
| 20260503004522 | 63 | 219 | 1.7 | 6.1 | 0.00 | 0.00 | 0.00 | 36 | 1011.7 |
| 20260503003022 | 63 | 222 | 1.7 | 10.4 | 0.00 | 0.00 | 0.00 | 36 | 1011.8 |
| 20260503001520 | 64 | 242 | 5.2 | 16.5 | 0.00 | 0.00 | 0.00 | 36 | 1012.1 |
| 20260503000020 | 64 | 191 | 3.5 | 7.8 | 0.00 | 0.00 | 0.00 | 36 | 1011.9 |
| 20260502234519 | 64 | 229 | 9.6 | 22.6 | 0.00 | 0.00 | 0.00 | 37 | 1012.3 |
| 20260502233018 | 65 | 175 | 3.5 | 8.7 | 0.00 | 0.00 | 0.00 | 34 | 1011.9 |
| 20260502231520 | 66 | 244 | 9.6 | 14.8 | 0.00 | 0.00 | 0.00 | 32 | 1012.4 |
| 20260502230016 | 66 | 185 | 6.1 | 10.4 | 0.00 | 0.00 | 0.00 | 30 | 1012.0 |
| 20260502224516 | 66 | 256 | 4.3 | 10.4 | 0.00 | 0.00 | 0.00 | 30 | 1012.2 |
| 20260502223013 | 67 | 198 | 5.2 | 8.7 | 0.00 | 0.00 | 0.00 | 30 | 1012.4 |
| 20260502221510 | 67 | 237 | 3.5 | 11.3 | 0.00 | 0.00 | 0.00 | 30 | 1012.6 |
| 20260502220010 | 67 | 211 | 3.5 | 9.6 | 0.00 | 0.00 | 0.00 | 30 | 1012.7 |
| 20260502214508 | 67 | 228 | 3.5 | 20.9 | 0.00 | 0.00 | 0.00 | 30 | 1013.0 |
| 20260502213006 | 67 | 202 | 7.8 | 14.8 | 0.00 | 0.00 | 0.00 | 29 | 1013.2 |
| 20260502211505 | 67 | 250 | 3.5 | 13.9 | 0.00 | 0.00 | 0.00 | 30 | 1013.4 |
| 20260502210005 | 67 | 240 | 9.6 | 16.5 | 0.00 | 0.00 | 0.00 | 30 | 1013.7 |
| 20260502204601 | 67 | 242 | 6.1 | 13.9 | 0.00 | 0.00 | 0.00 | 30 | 1014.0 |